Home > Weather > Datteln > Past weeks

Flag for Germany Past Weather in Datteln, North Rhine-Westphalia, Germany — Yesterday and Last 2 Weeks

Now
63 °F

Rain showers. Partly cloudy.


Feels Like: 63 °F
Forecast: 52 / 65 °F
Wind: 8 mph from West

Location: Duesseldorf

Current Time: Jul 2, 2016 at 2:19:51 AM

Latest Report: Jul 2, 2016 at 1:50 AM


Visibility: 2 mi

Pressure: 29.83 "Hg

Humidity: 100%

Dew Point: 63 °F

Location of DattelnLocation

Past Weather in Datteln — Graph

°F

Datteln Temperature Yesterday

Maximum temperature yesterday: 73 °F (at 2:50 PM)
Minimum temperature yesterday: 63 °F (at 4:50 AM)
Average temperature yesterday: 67 °F

High & Low Weather Summary for the Past Weeks

 TemperatureHumidityPressure
High91 °F (Jun 23, 3:20 PM)100% (Jun 17, 1:20 AM)30.27 "Hg (Jun 17, 1:20 AM)
Low50 °F (Jun 20, 12:50 AM)44% (Jun 23, 5:20 PM)29.56 "Hg (Jun 17, 2:50 AM)
Average64 °F82%30.01 "Hg
* Reported Jun 17 1:20 AM — Jul 2 1:20 AM, Datteln, Weather by CustomWeather, © 2016

Note: Actual official high and low records may vary slightly from our data, if they occured in-between our weather recording intervals... More about our weather records

Advertising

Datteln Weather History for the Previous 24 Hours

Scroll right to see more
 ConditionsComfort  
Time TempWeatherWind HumidityBarometerVisibility
1:20 AM
Sat, Jul 2
63 °FSprinkles. Passing clouds.10 mph94%29.83 "HgN/A
12:50 AM66 °FPassing clouds.10 mph78%29.83 "HgN/A
12:20 AM66 °FPartly cloudy.15 mph78%29.83 "HgN/A
11:50 PM
Fri, Jul 1
68 °FPartly cloudy.12 mph73%29.83 "HgN/A
11:20 PM66 °FPartly cloudy.14 mph78%29.86 "HgN/A
10:50 PM68 °FBroken clouds.13 mph73%29.86 "HgN/A
10:20 PM68 °FPartly sunny.13 mph73%29.86 "HgN/A
9:50 PM68 °FPartly sunny.14 mph73%29.83 "HgN/A
9:20 PM70 °FPartly sunny.14 mph69%29.83 "HgN/A
8:50 PM70 °FPartly sunny.15 mph69%29.86 "HgN/A
8:20 PM70 °FPartly sunny.17 mph69%29.86 "HgN/A
7:50 PM70 °FPartly sunny.16 mph69%29.86 "HgN/A
7:20 PM72 °FBroken clouds.14 mph65%29.89 "HgN/A
6:50 PM70 °FBroken clouds.15 mph69%29.89 "HgN/A
6:20 PM70 °FBroken clouds.16 mph69%29.89 "HgN/A
5:50 PM70 °FBroken clouds.16 mph69%29.89 "HgN/A
5:20 PM70 °FPartly sunny.16 mph69%29.92 "HgN/A
4:50 PM68 °FLight rain. Partly sunny.16 mph73%29.92 "HgN/A
4:20 PM72 °FBroken clouds.18 mph69%29.92 "HgN/A
3:50 PM70 °FPartly sunny.17 mph69%29.92 "HgN/A
3:20 PM70 °FBroken clouds.20 mph69%29.92 "HgN/A
2:50 PM73 °FBroken clouds.20 mph61%29.92 "HgN/A
2:20 PM70 °FBroken clouds.15 mph69%29.92 "HgN/A
1:50 PM68 °FPartly sunny.15 mph73%29.92 "HgN/A
1:20 PM68 °FBroken clouds.14 mph73%29.92 "HgN/A
12:50 PM68 °FBroken clouds.17 mph73%29.92 "HgN/A
12:20 PM66 °FBroken clouds.14 mph78%29.95 "HgN/A
11:50 AM68 °FPartly sunny.18 mph73%29.92 "HgN/A
11:20 AM66 °FPartly sunny.18 mph78%29.92 "HgN/A
10:50 AM66 °FPartly sunny.16 mph78%29.92 "HgN/A
10:20 AM68 °FPartly sunny.16 mph78%29.92 "HgN/A
9:50 AM68 °FPartly sunny.15 mph78%29.92 "HgN/A
9:20 AM68 °FPartly sunny.17 mph78%29.92 "HgN/A
8:50 AM66 °FPartly sunny.12 mph83%29.92 "HgN/A
8:20 AM66 °FPartly sunny.13 mph83%29.92 "HgN/A
7:50 AM64 °FPartly sunny.12 mph88%29.92 "HgN/A
7:20 AM64 °FPartly sunny.10 mph94%29.89 "HgN/A
6:50 AM64 °FPartly sunny.9 mph94%29.89 "HgN/A
6:20 AM63 °FPassing clouds.9 mph100%29.89 "HgN/A
5:50 AM63 °FPartly cloudy.9 mph100%29.92 "HgN/A
5:20 AM63 °FPartly cloudy.7 mph94%29.92 "HgN/A
4:50 AM63 °FSprinkles. Partly cloudy.10 mph94%29.92 "HgN/A
4:20 AM64 °FPassing clouds.10 mph88%29.92 "HgN/A
3:50 AM64 °FPassing clouds.10 mph88%29.92 "HgN/A
3:20 AM64 °FPartly cloudy.8 mph88%29.92 "HgN/A
2:50 AM64 °FPassing clouds.9 mph88%29.92 "HgN/A
2:20 AM64 °FPassing clouds.10 mph88%29.92 "HgN/A
Weather by CustomWeather, © 2016

See weather overviewHow to use our weather pages